[[{"header":{"parameterUnit":"m.s-1","parameterCategory":1,"la1":30.2991,"la2":30.254,"lo1":-89.0895,"lo2":-89.0444,"dy":0.0017,"dx":0.0017,"nx":28,"ny":28,"refTime":"2024-04-23T09:00:00:Z","depth":0,"parameterNumber":2,"parameterNumberName":"U-component_of_WINDS"},"data":[0,0,0,0,0,0,0,0,0,0,0,0,0,0,0,0,0,0,0,0,0,0,0,0,0,0,0,0,0,0,0,0,0,0,0,0,0,0,0,0,0,0,0,0,0,0,0,0,0,0,0,0,0,0,0,0,0,0,-3.0838,-3.0838,0,-3.0856,-3.0856,-3.0856,-3.0848,-3.0848,-3.0847,-3.0847,-3.0865,-3.0865,-3.0866,0,0,0,0,0,0,0,0,0,0,0,0,0,-3.0797,-3.0798,-3.0838,-3.0838,-3.0839,-3.0856,-3.0856,-3.0856,-3.0848,-3.0848,-3.0847,-3.0847,-3.0864,-3.0865,-3.0866,0,0,0,0,0,0,0,0,0,0,0,0,0,-3.0815,-3.0798,-3.0838,-3.0837,-3.0837,-3.0856,-3.0856,-3.0856,-3.0849,-3.0848,-3.0847,-3.0847,-3.0864,-3.0865,-3.0867,-3.0888,0,0,-3.0871,-3.0871,0,0,0,0,0,0,0,0,-3.0814,-3.0817,-3.0837,-3.0837,-3.0837,-3.0849,-3.0848,-3.0867,-3.0849,-3.0844,-3.0847,-3.0846,-3.086,-3.0862,-3.0866,-3.0889,-3.0889,-3.0871,-3.0871,-3.0872,-3.0872,0,0,0,0,0,0,0,-3.0813,-3.0816,-3.0845,-3.0837,-3.0837,-3.0835,-3.0837,-3.0852,-3.0855,-3.0844,-3.0844,-3.0846,-3.086,-3.0865,-3.0867,-3.089,-3.0871,-3.0872,-3.0873,-3.0873,-3.0931,-3.0931,0,0,0,0,0,0,-3.0812,-3.0815,-3.0845,-3.0846,-3.0824,-3.0837,-3.0839,-3.0846,-3.0855,-3.0856,-3.0847,-3.0846,-3.0863,-3.0865,-3.0867,-3.0892,-3.0872,-3.0873,-3.0874,-3.093,-3.0931,-3.0932,0,0,0,0,0,0,-3.0811,-3.0814,-3.0844,-3.083,-3.0834,-3.0838,-3.0846,-3.0847,-3.0852,-3.0857,-3.0858,-3.0851,-3.0863,-3.0865,-3.0883,-3.0893,-3.0874,-3.0875,-3.0929,-3.093,-3.0931,-3.0943,0,0,0,0,0,0,-3.081,-3.0814,-3.0822,-3.083,-3.0834,-3.0859,-3.0847,-3.0847,-3.0854,-3.0853,-3.0861,-3.0862,-3.0862,-3.0881,-3.0884,-3.0894,-3.0876,-3.0928,-3.093,-3.0931,-3.0942,-3.0944,-3.0947,0,0,0,0,0,-3.0808,-3.0824,-3.0822,-3.0826,-3.0845,-3.086,-3.0862,-3.0862,-3.0855,-3.0863,-3.0867,-3.0862,-3.0892,-3.0883,-3.0886,-3.0897,-3.0927,-3.0929,-3.0931,-3.094,-3.0944,-3.0947,0,0,0,0,0,0,-3.0817,-3.0825,-3.0823,-3.0843,-3.0851,-3.0858,-3.0868,-3.0866,-3.0875,-3.0874,-3.0873,-3.0875,-3.0893,-3.0897,-3.0887,-3.0918,-3.0908,-3.0911,-3.0915,-3.0918,-3.092,-3.0918,-3.0877,0,0,0,0,0,-3.0821,-3.0832,-3.084,-3.0856,-3.086,-3.0864,-3.087,-3.087,-3.0878,-3.0881,-3.0886,-3.0893,-3.0905,-3.0912,-3.0922,-3.0943,-3.0944,-3.0952,-3.0955,-3.0957,-3.0958,-3.0969,-3.0973,-3.0937,-3.0937,-3.0937,0,0,-3.0829,-3.0836,-3.0843,-3.0858,-3.0864,-3.0876,-3.0866,-3.0879,-3.0888,-3.0883,-3.0899,-3.0903,-3.0912,-3.0931,-3.094,-3.0935,-3.0969,-3.0959,-3.096,-3.0961,-3.0971,-3.0975,-3.0978,-3.0938,-3.0938,-3.0938,0,0,-3.0851,-3.0857,-3.0871,-3.0878,-3.0887,-3.089,-3.0893,-3.0902,-3.0904,-3.0921,-3.0917,-3.0928,-3.0948,-3.0954,-3.096,-3.0985,-3.0981,-3.0989,-3.1001,-3.1012,-3.1015,-3.1017,-3.1025,-3.1028,-3.0991,-3.0991,-3.0991,0,-3.086,-3.0877,-3.0879,-3.0892,-3.0899,-3.0896,-3.091,-3.0916,-3.0929,-3.0933,-3.0928,-3.0953,-3.0958,-3.0979,-3.0985,-3.099,-3.0994,-3.0987,-3.1014,-3.1017,-3.1019,-3.1027,-3.103,-3.0992,-3.0991,-3.0991,-3.0991,0,-3.0888,-3.0901,-3.0911,-3.0923,-3.0932,-3.0945,-3.0949,-3.0957,-3.0957,-3.096,-3.0977,-3.0984,-3.0996,-3.1002,-3.1001,-3.1022,-3.1019,-3.1014,-3.1004,-3.1023,-3.103,-3.1034,-3.0993,-3.0992,-3.0992,-3.0992,0,0,-3.0913,-3.0927,-3.0931,-3.0936,-3.0947,-3.0957,-3.0971,-3.0983,-3.099,-3.0999,-3.1011,-3.1028,-3.1024,-3.1031,-3.1031,-3.1041,-3.106,-3.1035,-3.1035,-3.1038,-3.1083,-3.1085,-3.1089,-3.1058,-3.1059,-3.1059,-3.1082,0,-3.0934,-3.0958,-3.0961,-3.0983,-3.0994,-3.0992,-3.1005,-3.1013,-3.1017,-3.1027,-3.1032,-3.1043,-3.1037,-3.1041,-3.1051,-3.1055,-3.1069,-3.1054,-3.1068,-3.1069,-3.1064,-3.1093,-3.1095,-3.1116,-3.1085,-3.1085,-3.1086,0,-3.0961,-3.0972,-3.0995,-3.1005,-3.101,-3.1021,-3.1032,-3.1043,-3.1052,-3.1054,-3.1062,-3.1062,-3.1077,-3.1068,-3.1088,-3.1078,-3.1084,-3.1087,-3.1088,-3.1088,-3.1077,-3.1092,-3.1123,-3.1125,-3.109,-3.109,-3.109,0,-3.0976,-3.0996,-3.1012,-3.1018,-3.103,-3.1037,-3.1043,-3.1052,-3.1059,-3.107,-3.1074,-3.1087,-3.1093,-3.1102,-3.1105,-3.1098,-3.1125,-3.1116,-3.1127,-3.1127,-3.1131,-3.113,-3.1161,-3.1137,-3.1137,-3.1137,-3.1137,0,-3.0998,-3.1012,-3.1019,-3.1029,-3.1045,-3.1048,-3.1063,-3.1069,-3.1077,-3.1088,-3.1088,-3.1098,-3.1102,-3.1113,-3.1115,-3.1131,-3.1135,-3.1136,-3.1137,-3.1135,-3.1135,-3.1138,-3.1136,-3.1138,-3.1138,-3.1138,-3.1138,0,-3.1016,-3.1022,-3.1039,-3.105,-3.1053,-3.1064,-3.1073,-3.1083,-3.1087,-3.1101,-3.1105,-3.1111,-3.1124,-3.1129,-3.1145,-3.1147,-3.1165,-3.1164,-3.1161,-3.1161,-3.1171,-3.1169,-3.1204,-3.1208,-3.1183,-3.1183,-3.1183,0,-3.1029,-3.104,-3.1052,-3.106,-3.1066,-3.1078,-3.1085,-3.109,-3.1098,-3.111,-3.1118,-3.1131,-3.1142,-3.1163,-3.1169,-3.1181,-3.118,-3.1192,-3.1182,-3.1181,-3.1179,-3.1178,-3.1179,-3.1193,-3.1193,-3.1193,-3.1194,0,-3.1052,-3.1054,-3.1065,-3.1078,-3.1087,-3.1097,-3.1107,-3.1113,-3.1119,-3.1128,-3.1141,-3.1149,-3.1166,-3.1179,-3.1192,-3.1197,-3.1196,-3.1197,-3.12,-3.1198,-3.1195,-3.1196,-3.1165,-3.1196,-3.1195,-3.1195,-3.1195,-3.1195,-3.1067,-3.1077,-3.1087,-3.1099,-3.1107,-3.1117,-3.1126,-3.1132,-3.1144,-3.1157,-3.1159,-3.1174,-3.1184,-3.1201,-3.1208,-3.1219,-3.1216,-3.122,-3.1221,-3.1222,-3.1222,-3.1195,-3.1222,-3.1222,-3.1221,-3.1221,-3.1221,0,-3.1089,-3.1096,-3.1107,-3.1121,-3.1131,-3.113,-3.1141,-3.1149,-3.1162,-3.1172,-3.1183,-3.1198,-3.1211,-3.1219,-3.1232,-3.124,-3.124,-3.1243,-3.1241,-3.1243,-3.1224,-3.122,-3.1243,-3.1243,-3.1243,-3.1243,-3.1243,-3.1243,-3.1101,-3.1117,-3.1121,-3.1141,-3.1148,-3.1162,-3.1168,-3.1176,-3.1184,-3.1202,-3.1213,-3.1218,-3.1227,-3.1241,-3.1253,-3.1255,-3.1259,-3.1262,-3.1264,-3.1246,-3.1244,-3.1242,-3.1238,-3.1264,-3.1264,-3.1281,-3.1281,-3.1282]},{"header":{"parameterUnit":"m.s-1","parameterCategory":1,"la1":30.2991,"la2":30.254,"lo1":-89.0895,"lo2":-89.0444,"dy":0.0017,"dx":0.0017,"nx":28,"ny":28,"refTime":"2024-04-23T09:00:00:Z","depth":0,"parameterNumber":3,"parameterNumberName":"V-component_of_WINDS"},"data":[0,0,0,0,0,0,0,0,0,0,0,0,0,0,0,0,0,0,0,0,0,0,0,0,0,0,0,0,0,0,0,0,0,0,0,0,0,0,0,0,0,0,0,0,0,0,0,0,0,0,0,0,0,0,0,0,0,0,4.1068,4.1069,0,4.1083,4.1084,4.1084,4.1098,4.1099,4.1099,4.1099,4.1113,4.1113,4.1113,0,0,0,0,0,0,0,0,0,0,0,0,0,4.1051,4.1051,4.1068,4.1069,4.1069,4.1083,4.1084,4.1084,4.1098,4.1099,4.1099,4.1099,4.1113,4.1113,4.1113,0,0,0,0,0,0,0,0,0,0,0,0,0,4.1062,4.1052,4.1068,4.1078,4.1079,4.1083,4.1084,4.1084,4.1098,4.1099,4.1099,4.1099,4.1113,4.1113,4.1113,4.1109,0,0,4.1114,4.1114,0,0,0,0,0,0,0,0,4.1061,4.1062,4.1076,4.1077,4.1078,4.1089,4.1083,4.1092,4.1098,4.1091,4.1099,4.1099,4.1105,4.1106,4.1108,4.111,4.111,4.1114,4.1114,4.1114,4.1114,0,0,0,0,0,0,0,4.106,4.1062,4.1074,4.1076,4.1078,4.1081,4.1083,4.1085,4.1096,4.1092,4.1093,4.1094,4.1105,4.1107,4.1108,4.111,4.1114,4.1114,4.1114,4.1114,4.111,4.111,0,0,0,0,0,0,4.1058,4.1061,4.1074,4.1075,4.107,4.1081,4.1083,4.1085,4.1096,4.1098,4.1094,4.1095,4.1107,4.1108,4.1109,4.1105,4.1114,4.1115,4.1115,4.1111,4.111,4.111,0,0,0,0,0,0,4.1058,4.1059,4.1073,4.1068,4.107,4.1081,4.1084,4.1086,4.1088,4.1098,4.11,4.1094,4.1107,4.1108,4.1109,4.1106,4.1115,4.1115,4.1111,4.1111,4.111,4.1097,0,0,0,0,0,0,4.1057,4.1059,4.1058,4.1068,4.107,4.1074,4.1083,4.1086,4.1088,4.109,4.1099,4.11,4.1107,4.1109,4.1109,4.1106,4.1115,4.1111,4.1111,4.111,4.1098,4.1096,4.1095,0,0,0,0,0,4.1057,4.1053,4.1058,4.1059,4.1069,4.1073,4.1075,4.1083,4.1088,4.1087,4.1093,4.11,4.1106,4.1109,4.111,4.1106,4.1112,4.1111,4.111,4.1099,4.1097,4.1095,0,0,0,0,0,0,4.1041,4.1054,4.106,4.1059,4.1065,4.1076,4.1074,4.1081,4.1085,4.1086,4.1096,4.1098,4.1098,4.1102,4.1105,4.1103,4.111,4.1109,4.11,4.1099,4.1097,4.1096,4.1115,0,0,0,0,0,4.1038,4.1041,4.1052,4.105,4.1053,4.1063,4.1065,4.1072,4.1078,4.108,4.1087,4.1092,4.1096,4.1097,4.1101,4.1099,4.1101,4.1097,4.1096,4.1094,4.1094,4.1093,4.1092,4.1108,4.1108,4.1108,0,0,4.1031,4.1038,4.1039,4.1048,4.1053,4.1055,4.1065,4.1067,4.1069,4.1081,4.1082,4.1087,4.1094,4.1093,4.1093,4.1097,4.109,4.1094,4.1092,4.1093,4.1093,4.1091,4.109,4.1108,4.1108,4.1108,0,0,4.1019,4.1025,4.1025,4.103,4.1038,4.1045,4.1045,4.1055,4.1059,4.1061,4.107,4.1072,4.1077,4.1082,4.1085,4.1076,4.1082,4.1077,4.1069,4.1068,4.1067,4.1066,4.1063,4.1062,4.1076,4.1076,4.1076,0,4.1009,4.1013,4.1023,4.1025,4.1029,4.104,4.104,4.1045,4.1053,4.1055,4.1059,4.1066,4.1072,4.1073,4.1071,4.1073,4.1073,4.1075,4.1066,4.1065,4.1065,4.1062,4.1061,4.1075,4.1075,4.1075,4.1075,0,4.1,4.1003,4.1002,4.1011,4.1015,4.1015,4.1026,4.1028,4.1034,4.104,4.1042,4.1049,4.1054,4.1055,4.1061,4.1057,4.1059,4.1065,4.1071,4.1062,4.106,4.1059,4.1074,4.1074,4.1075,4.1075,0,0,4.0978,4.0994,4.0993,4.0998,4.1008,4.1011,4.1012,4.1018,4.102,4.1025,4.1027,4.1031,4.1037,4.104,4.1047,4.1046,4.1039,4.1052,4.1052,4.1049,4.1036,4.1031,4.103,4.1044,4.1043,4.1043,4.1035,0,4.0968,4.0972,4.0982,4.0983,4.0986,4.0997,4.0998,4.1005,4.1011,4.1014,4.1021,4.1024,4.1031,4.1033,4.1033,4.104,4.1036,4.1041,4.1045,4.1045,4.1042,4.1029,4.1024,4.1016,4.1034,4.1034,4.1034,0,4.0957,4.0963,4.0964,4.0975,4.0977,4.0978,4.0984,4.0987,4.0995,4.1,4.1004,4.1011,4.1013,4.102,4.1023,4.1025,4.1027,4.1031,4.1031,4.1032,4.1038,4.1029,4.1014,4.1012,4.1032,4.1033,4.1033,0,4.0941,4.095,4.0952,4.0955,4.0968,4.0968,4.0974,4.0982,4.0985,4.099,4.0993,4.0998,4.1001,4.1005,4.1014,4.1017,4.1015,4.1023,4.1019,4.1019,4.1018,4.1018,4.1003,4.1019,4.1019,4.1019,4.1019,0,4.0929,4.0929,4.0945,4.0946,4.0947,4.0958,4.0958,4.0964,4.0971,4.0974,4.0984,4.0986,4.0997,4.1,4.1007,4.1009,4.101,4.1013,4.1015,4.1013,4.1012,4.1014,4.1015,4.1019,4.1019,4.1019,4.1019,0,4.0911,4.0922,4.0925,4.0937,4.094,4.094,4.095,4.0952,4.0959,4.0962,4.0963,4.0974,4.0979,4.0988,4.0995,4.0999,4.0999,4.1002,4.0997,4.0998,4.0994,4.0994,4.0979,4.0978,4.0995,4.0995,4.0995,0,4.0903,4.0903,4.0916,4.0919,4.0924,4.0928,4.0932,4.0943,4.0946,4.0955,4.0956,4.0961,4.0966,4.0972,4.0981,4.0986,4.0989,4.0984,4.099,4.0988,4.0989,4.0989,4.099,4.0982,4.0982,4.0982,4.0982,0,4.0887,4.0892,4.0897,4.0904,4.0909,4.0915,4.0921,4.0923,4.0935,4.0938,4.0944,4.0947,4.0955,4.096,4.0967,4.0972,4.0979,4.098,4.0979,4.0977,4.0973,4.0975,4.0993,4.098,4.098,4.098,4.098,4.0981,4.0873,4.0875,4.0884,4.089,4.0896,4.0902,4.0904,4.0912,4.0917,4.0924,4.0931,4.0935,4.0943,4.0953,4.0958,4.0961,4.0965,4.0964,4.0964,4.0963,4.0962,4.0973,4.0962,4.0962,4.0962,4.0962,4.0962,0,4.0858,4.0865,4.087,4.0879,4.0884,4.0891,4.0899,4.0902,4.0906,4.0913,4.0918,4.0924,4.0929,4.0938,4.0944,4.0945,4.0949,4.0947,4.0947,4.0948,4.0959,4.0958,4.0944,4.0944,4.0944,4.0944,4.0944,4.0944,4.085,4.0853,4.086,4.0866,4.0873,4.0878,4.0882,4.0887,4.0893,4.09,4.0905,4.0911,4.0919,4.0926,4.0931,4.0933,4.0935,4.0932,4.0935,4.0945,4.0947,4.0948,4.0948,4.0932,4.0932,4.0924,4.0924,4.0924]}]]